Home   Weather   San Juan   Past weeks
Flag for Puerto Rico

Past Weather in San Juan, Puerto Rico — Yesterday and Last 2 Weeks

Now
87 °F

Scattered clouds.


Feels Like: 95 °F
Forecast: 88 / 78 °F
Wind: 15 mph from East

Location: Luis Munoz Marin

Current Time: Jul 21, 2019 at 11:03:44 am

Latest Report: Jul 21, 2019 at 9:56 am


Visibility: 10 mi

Pressure: 30.02 "Hg

Humidity: 65%

Dew Point: 74 °F

Location of San JuanLocation

Past Weather in San Juan — Graph

°F

San Juan Temperature Yesterday

Maximum temperature yesterday: 89 °F (at 3:56 pm)
Minimum temperature yesterday: 79 °F (at 12:56 am)
Average temperature yesterday: 83 °F

High & Low Weather Summary for the Past Weeks

 TemperatureHumidityPressure
High92 °F (Jul 9, 1:56 pm)94% (Jul 20, 12:56 am)30.12 "Hg (Jul 20, 12:56 am)
Low76 °F (Jul 17, 2:11 am)56% (Jul 9, 1:56 pm)29.96 "Hg (Jul 12, 3:56 am)
Average84 °F75%30.04 "Hg
* Reported Jul 6 8:56 am — Jul 21 8:56 am, San Juan. Weather by CustomWeather, © 2019

Note: Actual official high and low records may vary slightly from our data, if they occured in-between our weather recording intervals... More about our weather records

Advertising

San Juan Weather History for the Previous 24 Hours

Scroll right to see more
 ConditionsComfort  
Time TempWeatherWind HumidityBarometerVisibility
8:56 am
Sun, Jul 21
84 °FScattered clouds.10 mph77%30.02 "Hg10 mi
7:56 am83 °FScattered clouds.7 mph77%30.01 "Hg10 mi
6:56 am81 °FPassing clouds.6 mph79%30.00 "Hg10 mi
5:56 am80 °FPassing clouds.No wind81%29.98 "Hg10 mi
4:56 am80 °FPassing clouds.No wind81%29.97 "Hg10 mi
3:56 am80 °FPassing clouds.No wind79%29.97 "Hg10 mi
2:56 am81 °FPassing clouds.No wind77%29.98 "Hg10 mi
1:56 am81 °FPassing clouds.5 mph74%29.99 "Hg10 mi
12:56 am81 °FPassing clouds.5 mph74%30.00 "Hg10 mi
11:56 pm
Sat, Jul 20
82 °FPassing clouds.No wind72%30.01 "Hg10 mi
10:56 pm82 °FPassing clouds.3 mph77%30.02 "Hg10 mi
9:56 pm82 °FPassing clouds.9 mph77%30.02 "Hg10 mi
8:56 pm84 °FPassing clouds.7 mph72%30.01 "Hg10 mi
7:56 pm83 °FPassing clouds.8 mph77%29.99 "Hg10 mi
6:56 pm84 °FPassing clouds.13 mph74%29.99 "Hg10 mi
5:56 pm86 °FScattered clouds.16 mph70%29.97 "Hg10 mi
4:56 pm87 °FScattered clouds.17 mph67%29.97 "Hg10 mi
3:56 pm89 °FScattered clouds.16 mph65%29.98 "Hg10 mi
2:56 pm87 °FScattered clouds.12 mph69%29.99 "Hg10 mi
1:56 pm87 °FScattered clouds.10 mph61%30.01 "Hg10 mi
12:56 pm86 °FScattered clouds.13 mph63%30.04 "Hg10 mi
11:56 am86 °FScattered clouds.10 mph70%30.06 "Hg10 mi
Weather by CustomWeather, © 2019

See weather overview